Location: Aalen
(48.8330°N, 10.1000°E)
Time: 00:19:54
(UTC+01:00)

BlueWalker 3 - Pass Details

Date: 11 December 2022
Orbit: 499 x 517 km, 53.2° (Epoch: 04 February)

Event Time Altitude Azimuth Distance (km) Brightness Sun altitude
Rises 19:11:56 0° 285° (WNW) 2,622 6.7 -26.7°
Reaches altitude 10° 19:15:24 10° 252° (WSW) 1,725 5.6 -27.2°
Maximum altitude 19:16:50 12° 231° (SW) 1,613 5.1 -27.5°
Drops below altitude 10° 19:18:15 10° 209° (SSW) 1,715 5.0 -27.7°
Enters shadow 19:19:35 - 193° (SSW) 1,981 5.1 -27.9°
